Thunderstorms From: 26-05-2018 21:24 Until: 27-05-2018 15:00 warning for: Thunderstorms Level: Yellow info button

Although rather usual in this region, locally or potentially dangerous phenomena are expected. (such as local winds, summer thunderstorms, rising streams or high waves) Be aware and pay attention to the latest weather updates, especially if you carry out activities exposed to weather or close to a stream or shoreline. 


Meteo18 Weather Cam more information Meteo18 Weather Cam


warning for Thunderstorms more information blitzortung!


Rain radar more information rain snow radar


Visit our other weather sites:

Template documentation
and downloads

And another site



Weather Underground History page Text

Daily Summary for April 26, 2016 Units:  Metric    English   Both
« Previous Day
Next Day »
Daily Weekly Monthly Yearly Custom
  High: Low: Average:
Temperature: -17.8 °C -17 °C -14.2 °C
Dew Point: -17.8 °C -17.6 °C -15.4 °C
Humidity: Humidity % 74 % 86 %
Wind Speed: 0 km/h 0 km/h 2.4 km/h
Wind Gust: 0 km/h - -
Wind:- - South
Pressure: 0 hPa 34097 hPa -
Precipitation: 63.5 mm    
Historical Graphs
 
 
Tabular Data for April 26, 2016
Time Temperature Dew Point Pressure Wind Wind Speed Wind Gust Humidity Rainfall Rate (Hourly)
-17.8 °C -17.8 °C 0 hPa Calm     Humidity % 0 mm
00:02 -13.5 °C -15.3 °C 34212.1 hPa SW 2.6 km/h 18.2 km/h 80 % 0 mm
00:07 -13.5 °C -15.3 °C 34212.1 hPa WSW 5.1 km/h 18.2 km/h 80 % 0 mm
00:12 -13.5 °C -15.3 °C 34212.1 hPa SW 2.6 km/h 18.2 km/h 80 % 0 mm
00:17 -13.5 °C -15.2 °C 34198.6 hPa WSW 2.6 km/h 18.2 km/h 81 % 0 mm
00:22 -13.5 °C -15.2 °C 34198.6 hPa SW 15.6 km/h 18.2 km/h 81 % 0 mm
00:27 -13.6 °C -15.3 °C 34198.6 hPa WSW 2.6 km/h 18.2 km/h 81 % 0 mm
00:32 -13.6 °C -15.2 °C 34198.6 hPa WSW 2.6 km/h 23.3 km/h 82 % 0 mm
00:37 -13.6 °C -15.2 °C 34198.6 hPa SSE 7.7 km/h 23.3 km/h 82 % 0 mm
00:42 -13.6 °C -15.2 °C 34198.6 hPa SW 2.6 km/h 23.3 km/h 82 % 0 mm
00:47 -13.6 °C -15.2 °C 34198.6 hPa SW 7.7 km/h 15.6 km/h 82 % 0 mm
00:52 -13.6 °C -15.2 °C 34198.6 hPa WSW 5.1 km/h 15.6 km/h 82 % 0 mm
00:57 -13.6 °C -15.1 °C 34188.4 hPa West 2.6 km/h 12.9 km/h 83 % 0 mm
01:02 -13.6 °C -15.1 °C 34188.4 hPa SW 15.6 km/h 15.6 km/h 83 % 0 mm
01:07 -13.6 °C -15.1 °C 34188.4 hPa SW 2.6 km/h 15.6 km/h 83 % 0 mm
01:12 -13.6 °C -15.1 °C 34188.4 hPa SW 2.6 km/h 15.6 km/h 83 % 0 mm
01:17 -13.6 °C -15.1 °C 34188.4 hPa West 2.6 km/h 15.6 km/h 83 % 0 mm
01:22 -13.6 °C -14.9 °C 34188.4 hPa Calm   15.6 km/h 84 % 0 mm
01:27 -13.6 °C -14.9 °C 34188.4 hPa Calm   12.9 km/h 84 % 0 mm
01:32 -13.6 °C -14.9 °C 34178.3 hPa SW 2.6 km/h 12.9 km/h 85 % 0 mm
01:37 -13.6 °C -14.8 °C 34188.4 hPa Calm   12.9 km/h 86 % 0 mm
01:42 -13.7 °C -14.8 °C 34178.3 hPa Calm   12.9 km/h 87 % 0 mm
01:47 -13.8 °C -14.8 °C 34178.3 hPa WSW 2.6 km/h 10.3 km/h 88 % 0 mm
01:52 -13.8 °C -14.8 °C 34178.3 hPa SW 2.6 km/h 10.3 km/h 88 % 0 mm
01:57 -13.8 °C -14.7 °C 34178.3 hPa NW 2.6 km/h 12.9 km/h 89 % 0 mm
02:02 -13.8 °C -14.7 °C 34178.3 hPa WSW 5.1 km/h 12.9 km/h 89 % 0 mm
02:07 -13.8 °C -14.7 °C 34178.3 hPa Calm   12.9 km/h 89 % 0 mm
02:12 -13.8 °C -14.8 °C 34178.3 hPa SW 2.6 km/h 10.3 km/h 89 % 0 mm
02:17 -13.8 °C -14.8 °C 34178.3 hPa Calm   10.3 km/h 89 % 0 mm
02:22 -13.8 °C -14.8 °C 34178.3 hPa SW 2.6 km/h 10.3 km/h 89 % 0 mm
02:27 -13.9 °C -14.8 °C 34178.3 hPa Calm   12.9 km/h 90 % 7.62 mm
02:32 -13.9 °C -14.8 °C 34164.7 hPa Calm   12.9 km/h 90 % 7.62 mm
02:37 -14 °C -14.8 °C 34164.7 hPa Calm   10.3 km/h 91 % 12.7 mm
02:42 -14 °C -14.8 °C 34164.7 hPa Calm   10.3 km/h 91 % 12.7 mm
02:47 -14 °C -14.7 °C 34164.7 hPa Calm   7.7 km/h 92 % 12.7 mm
02:52 -14.1 °C -14.7 °C 34164.7 hPa Calm   7.7 km/h 92 % 12.7 mm
02:57 -14.1 °C -14.7 °C 34164.7 hPa Calm   5.1 km/h 92 % 12.7 mm
03:02 -14.1 °C -14.7 °C 34164.7 hPa SW 5.1 km/h 5.1 km/h 93 % 12.7 mm
03:07 -14.1 °C -14.7 °C 34154.6 hPa Calm   7.7 km/h 93 % 12.7 mm
03:12 -14.1 °C -14.7 °C 34154.6 hPa SW 2.6 km/h 7.7 km/h 93 % 12.7 mm
03:17 -14.1 °C -14.7 °C 34154.6 hPa Calm   5.1 km/h 93 % 12.7 mm
03:22 -14.1 °C -14.7 °C 34154.6 hPa Calm   5.1 km/h 93 % 12.7 mm
03:27 -14.1 °C -14.7 °C 34154.6 hPa WSW 2.6 km/h 7.7 km/h 93 % 7.62 mm
03:32 -14.1 °C -14.7 °C 34144.4 hPa WSW 2.6 km/h 7.7 km/h 93 % 7.62 mm
03:37 -14.1 °C -14.7 °C 34144.4 hPa Calm   7.7 km/h 93 % 0 mm
03:42 -14.1 °C -14.7 °C 34144.4 hPa WSW 2.6 km/h 7.7 km/h 93 % 0 mm
03:47 -14.1 °C -14.7 °C 34144.4 hPa Calm   10.3 km/h 93 % 7.62 mm
03:57 -14.1 °C -14.7 °C 34144.4 hPa Calm   10.3 km/h 93 % 7.62 mm
04:02 -14.1 °C -14.8 °C 34144.4 hPa Calm   10.3 km/h 92 % 7.62 mm
04:07 -14.1 °C -14.8 °C 34144.4 hPa Calm   5.1 km/h 92 % 7.62 mm
04:12 -14.2 °C -14.8 °C 34144.4 hPa WSW 5.1 km/h 5.1 km/h 93 % 7.62 mm
04:17 -14.2 °C -14.8 °C 34144.4 hPa SW 2.6 km/h 7.7 km/h 93 % 7.62 mm
04:22 -14.2 °C -14.8 °C 34144.4 hPa SW 2.6 km/h 7.7 km/h 93 % 7.62 mm
04:27 -14.1 °C -14.7 °C 34144.4 hPa Calm   12.9 km/h 93 % 7.62 mm
04:32 -14.1 °C -14.7 °C 34144.4 hPa Calm   12.9 km/h 93 % 7.62 mm
04:37 -14.2 °C -14.8 °C 34144.4 hPa Calm   12.9 km/h 93 % 7.62 mm
04:42 -14.2 °C -14.8 °C 34144.4 hPa Calm   12.9 km/h 93 % 7.62 mm
04:47 -14.2 °C -14.8 °C 34144.4 hPa Calm   7.7 km/h 93 % 0 mm
04:52 -14.2 °C -14.8 °C 34130.9 hPa Calm   7.7 km/h 93 % 0 mm
05:02 -14.2 °C -14.8 °C 34130.9 hPa Calm   7.7 km/h 93 % 0 mm
05:17 -14.1 °C -14.7 °C 34130.9 hPa Calm   10.3 km/h 93 % 0 mm
05:22 -14.1 °C -14.7 °C 34130.9 hPa Calm   10.3 km/h 93 % 0 mm
05:27 -14.1 °C -14.7 °C 34130.9 hPa SW 2.6 km/h 12.9 km/h 93 % 0 mm
05:32 -14.1 °C -14.7 °C 34130.9 hPa SW 5.1 km/h 12.9 km/h 93 % 0 mm
05:42 -14.1 °C -14.7 °C 34120.7 hPa Calm   18.2 km/h 93 % 0 mm
05:47 -14.2 °C -14.8 °C 34130.9 hPa Calm   18.2 km/h 92 % 0 mm
05:52 -14.2 °C -14.8 °C 34130.9 hPa Calm   18.2 km/h 93 % 0 mm
05:57 -14.2 °C -14.8 °C 34120.7 hPa Calm   7.7 km/h 93 % 0 mm
06:02 -14.2 °C -14.8 °C 34130.9 hPa Calm   7.7 km/h 93 % 0 mm
06:07 -14.2 °C -14.8 °C 34130.9 hPa Calm   5.1 km/h 93 % 0 mm
06:12 -14.2 °C -14.8 °C 34130.9 hPa SW 2.6 km/h 5.1 km/h 93 % 0 mm
06:17 -14.2 °C -14.8 °C 34130.9 hPa Calm   7.7 km/h 93 % 0 mm
06:22 -14.2 °C -14.8 °C 34130.9 hPa Calm   7.7 km/h 93 % 0 mm
06:27 -14.2 °C -14.8 °C 34130.9 hPa SW 2.6 km/h 5.1 km/h 93 % 0 mm
06:32 -14.2 °C -14.9 °C 34130.9 hPa Calm   5.1 km/h 92 % 0 mm
06:37 -14.2 °C -14.9 °C 34130.9 hPa Calm   5.1 km/h 92 % 0 mm
06:52 -14.2 °C -14.8 °C 34120.7 hPa Calm   7.7 km/h 92 % 0 mm
07:02 -14.2 °C -14.9 °C 34130.9 hPa Calm   5.1 km/h 91 % 0 mm
07:12 -14.1 °C -14.9 °C 34130.9 hPa SW 2.6 km/h 10.3 km/h 91 % 0 mm
07:17 -14.1 °C -14.9 °C 34130.9 hPa Calm   7.7 km/h 91 % 0 mm
07:22 -14.1 °C -14.9 °C 34130.9 hPa SSE 2.6 km/h 7.7 km/h 91 % 0 mm
07:32 -14.1 °C -14.9 °C 34130.9 hPa Calm   7.7 km/h 91 % 0 mm
07:42 -14.1 °C -14.9 °C 34130.9 hPa Calm   10.3 km/h 90 % 0 mm
07:52 -14.1 °C -14.9 °C 34130.9 hPa Calm   10.3 km/h 90 % 0 mm
07:57 -14.1 °C -14.9 °C 34130.9 hPa Calm   7.7 km/h 90 % 0 mm
08:02 -14.1 °C -14.8 °C 34130.9 hPa Calm   7.7 km/h 91 % 0 mm
08:12 -14.1 °C -14.9 °C 34130.9 hPa SSW 2.6 km/h 7.7 km/h 90 % 0 mm
08:22 -13.9 °C -14.8 °C 34130.9 hPa Calm   10.3 km/h 90 % 0 mm
08:32 -13.9 °C -14.9 °C 34130.9 hPa Calm   10.3 km/h 89 % 0 mm
08:42 -13.9 °C -15 °C 34130.9 hPa Calm   7.7 km/h 87 % 0 mm
08:47 -13.8 °C -14.9 °C 34130.9 hPa Calm   10.3 km/h 87 % 0 mm
08:52 -13.8 °C -14.9 °C 34130.9 hPa Calm   10.3 km/h 87 % 0 mm
09:02 -13.8 °C -15 °C 34130.9 hPa South 2.6 km/h 10.3 km/h 86 % 0 mm
09:07 -13.8 °C -15 °C 34130.9 hPa Calm   12.9 km/h 86 % 0 mm
09:12 -13.8 °C -15 °C 34130.9 hPa SW 5.1 km/h 12.9 km/h 86 % 0 mm
09:17 -13.7 °C -14.8 °C 34130.9 hPa Calm   12.9 km/h 87 % 0 mm
09:22 -13.7 °C -14.8 °C 34130.9 hPa Calm   12.9 km/h 87 % 0 mm
09:32 -13.5 °C -14.6 °C 34130.9 hPa Calm   7.7 km/h 87 % 0 mm
09:37 -13.5 °C -14.6 °C 34130.9 hPa Calm   5.1 km/h 87 % 0 mm
09:42 -13.4 °C -14.6 °C 34130.9 hPa Calm   5.1 km/h 87 % 0 mm
09:52 -13.4 °C -14.7 °C 34130.9 hPa SW 5.1 km/h 7.7 km/h 86 % 0 mm
10:02 -13.2 °C -14.6 °C 34130.9 hPa SSW 5.1 km/h 7.7 km/h 85 % 0 mm
10:17 -12.9 °C -14.4 °C 34144.4 hPa Calm   10.3 km/h 84 % 0 mm
10:22 -12.9 °C -14.4 °C 34130.9 hPa SW 5.1 km/h 10.3 km/h 83 % 0 mm
10:27 -13 °C -14.6 °C 34130.9 hPa Calm   12.9 km/h 82 % 0 mm
10:32 -13 °C -14.6 °C 34130.9 hPa Calm   12.9 km/h 82 % 0 mm
10:37 -13 °C -14.8 °C 34130.9 hPa SSE 5.1 km/h 12.9 km/h 80 % 0 mm
10:42 -13.1 °C -14.8 °C 34130.9 hPa SW 5.1 km/h 12.9 km/h 81 % 0 mm
10:47 -13.1 °C -14.9 °C 34130.9 hPa SW 5.1 km/h 12.9 km/h 80 % 0 mm
10:52 -13.1 °C -14.9 °C 34130.9 hPa SW 2.6 km/h 12.9 km/h 80 % 0 mm
10:57 -13 °C -14.7 °C 34130.9 hPa SW 5.1 km/h 15.6 km/h 81 % 0 mm
11:02 -12.9 °C -14.6 °C 34120.7 hPa WSW 7.7 km/h 15.6 km/h 82 % 0 mm
11:07 -13.1 °C -14.9 °C 34120.7 hPa Calm   18.2 km/h 80 % 0 mm
11:12 -13.2 °C -14.7 °C 34120.7 hPa Calm   18.2 km/h 83 % 0 mm
11:17 -13.4 °C -14.7 °C 34130.9 hPa Calm   18.2 km/h 85 % 7.62 mm
11:22 -13.4 °C -14.6 °C 34130.9 hPa Calm   18.2 km/h 87 % 7.62 mm
11:32 -13.6 °C -14.7 °C 34120.7 hPa Calm   10.3 km/h 88 % 12.7 mm
11:37 -13.7 °C -14.7 °C 34120.7 hPa Calm   10.3 km/h 88 % 20.32 mm
11:42 -13.6 °C -14.6 °C 34130.9 hPa Calm   10.3 km/h 89 % 20.32 mm
11:47 -13.6 °C -14.7 °C 34130.9 hPa Calm   12.9 km/h 88 % 20.32 mm
11:52 -13.7 °C -14.7 °C 34130.9 hPa Calm   12.9 km/h 88 % 33.02 mm
11:57 -13.8 °C -14.8 °C 34130.9 hPa Calm   12.9 km/h 88 % 45.72 mm
12:12 -13.6 °C -14.5 °C 34130.9 hPa Calm   7.7 km/h 89 % 50.8 mm
12:17 -13.4 °C -14.6 °C 34130.9 hPa WSW 7.7 km/h 7.7 km/h 87 % 45.72 mm
12:22 -13.4 °C -14.5 °C 34130.9 hPa SSW 2.6 km/h 15.6 km/h 88 % 38.1 mm
12:27 -13.4 °C -14.4 °C 34130.9 hPa East 2.6 km/h 15.6 km/h 88 % 38.1 mm
12:32 -13.4 °C -14.7 °C 34130.9 hPa West 7.7 km/h 15.6 km/h 86 % 33.02 mm
12:42 -13.3 °C -14.4 °C 34130.9 hPa Calm   10.3 km/h 87 % 33.02 mm
12:47 -13.1 °C -14.4 °C 34130.9 hPa SW 7.7 km/h 7.7 km/h 85 % 25.4 mm
12:52 -13.2 °C -14.6 °C 34130.9 hPa SW 2.6 km/h 7.7 km/h 84 % 25.4 mm
12:57 -13.2 °C -14.6 °C 34130.9 hPa SSE 10.3 km/h 15.6 km/h 85 % 0 mm
13:02 -13.3 °C -14.7 °C 34130.9 hPa NE 2.6 km/h 15.6 km/h 85 % 0 mm
13:07 -13.5 °C -14.9 °C 34130.9 hPa WSW 2.6 km/h 10.3 km/h 84 % 0 mm
13:12 -13.6 °C -14.8 °C 34130.9 hPa Calm   10.3 km/h 86 % 0 mm
13:17 -13.6 °C -14.7 °C 34130.9 hPa Calm   15.6 km/h 87 % 0 mm
13:22 -13.7 °C -14.9 °C 34130.9 hPa Calm   15.6 km/h 86 % 0 mm
13:27 -13.7 °C -15.1 °C 34130.9 hPa SW 2.6 km/h 10.3 km/h 85 % 0 mm
13:32 -13.8 °C -15.1 °C 34144.4 hPa Calm   10.3 km/h 85 % 0 mm
13:37 -13.8 °C -15.2 °C 34130.9 hPa SSW 2.6 km/h 12.9 km/h 85 % 0 mm
13:42 -13.9 °C -15.1 °C 34130.9 hPa Calm   12.9 km/h 86 % 0 mm
13:47 -13.9 °C -15.2 °C 34130.9 hPa SW 7.7 km/h 7.7 km/h 86 % 0 mm
13:52 -13.9 °C -15.1 °C 34130.9 hPa East 7.7 km/h 7.7 km/h 87 % 0 mm
13:57 -13.8 °C -14.9 °C 34130.9 hPa Calm   12.9 km/h 87 % 0 mm
14:02 -13.7 °C -14.8 °C 34130.9 hPa SSE 5.1 km/h 12.9 km/h 87 % 0 mm
14:07 -13.7 °C -15.1 °C 34120.7 hPa Calm   12.9 km/h 84 % 0 mm
14:12 -13.7 °C -15.1 °C 34130.9 hPa ESE 2.6 km/h 12.9 km/h 84 % 0 mm
14:17 -13.7 °C -15.1 °C 34130.9 hPa WSW 2.6 km/h 12.9 km/h 84 % 0 mm
14:22 -13.7 °C -15.1 °C 34120.7 hPa WSW 5.1 km/h 12.9 km/h 84 % 0 mm
14:27 -13.7 °C -15 °C 34120.7 hPa SW 12.9 km/h 15.6 km/h 85 % 0 mm
14:32 -13.8 °C -15.1 °C 34120.7 hPa SW 5.1 km/h 15.6 km/h 85 % 0 mm
14:37 -13.8 °C -15 °C 34120.7 hPa SSE 10.3 km/h 15.6 km/h 86 % 0 mm
14:42 -13.6 °C -14.7 °C 34120.7 hPa SW 5.1 km/h 15.6 km/h 87 % 0 mm
14:47 -13.1 °C -14.4 °C 34120.7 hPa Calm   15.6 km/h 85 % 0 mm
14:52 -12.9 °C -14.5 °C 34120.7 hPa SW 10.3 km/h 15.6 km/h 82 % 0 mm
14:57 -12.8 °C -14.6 °C 34107.2 hPa SW 2.6 km/h 12.9 km/h 81 % 0 mm
15:02 -12.7 °C -14.5 °C 34107.2 hPa SW 5.1 km/h 12.9 km/h 80 % 0 mm
15:07 -12.7 °C -14.9 °C 34120.7 hPa NE 10.3 km/h 12.9 km/h 76 % 0 mm
15:12 -13.4 °C -15.3 °C 34120.7 hPa NE 10.3 km/h 12.9 km/h 79 % 0 mm
15:17 -13.9 °C -15.6 °C 34120.7 hPa SE 2.6 km/h 20.8 km/h 81 % 0 mm
15:22 -14.1 °C -15.6 °C 34120.7 hPa SSE 7.7 km/h 20.8 km/h 83 % 0 mm
15:27 -14.2 °C -15.5 °C 34120.7 hPa Calm   15.6 km/h 85 % 0 mm
15:32 -14.2 °C -15.7 °C 34120.7 hPa Calm   15.6 km/h 83 % 0 mm
15:37 -14.2 °C -15.7 °C 34120.7 hPa SW 2.6 km/h 15.6 km/h 83 % 0 mm
15:42 -14.1 °C -15.6 °C 34120.7 hPa SW 2.6 km/h 15.6 km/h 83 % 0 mm
15:47 -14 °C -15.6 °C 34107.2 hPa WSW 7.7 km/h 15.6 km/h 82 % 0 mm
15:52 -14 °C -15.6 °C 34107.2 hPa Calm   15.6 km/h 82 % 0 mm
15:57 -14 °C -15.7 °C 34107.2 hPa Calm   15.6 km/h 81 % 0 mm
16:02 -14 °C -15.8 °C 34107.2 hPa Calm   15.6 km/h 80 % 0 mm
16:07 -14 °C -16 °C 34107.2 hPa Calm   7.7 km/h 78 % 0 mm
16:12 -14 °C -15.9 °C 34107.2 hPa SW 2.6 km/h 7.7 km/h 79 % 0 mm
16:17 -13.9 °C -15.7 °C 34107.2 hPa SW 2.6 km/h 7.7 km/h 80 % 0 mm
16:22 -13.8 °C -15.6 °C 34107.2 hPa SW 2.6 km/h 7.7 km/h 80 % 0 mm
16:27 -13.7 °C -15.6 °C 34107.2 hPa SW 2.6 km/h 7.7 km/h 79 % 0 mm
16:32 -13.6 °C -15.6 °C 34107.2 hPa Calm   7.7 km/h 78 % 0 mm
16:37 -13.6 °C -15.7 °C 34107.2 hPa Calm   10.3 km/h 77 % 0 mm
16:42 -13.5 °C -15.6 °C 34107.2 hPa SW 5.1 km/h 10.3 km/h 77 % 0 mm
16:52 -13.3 °C -15.4 °C 34097 hPa SW 5.1 km/h 7.7 km/h 77 % 0 mm
16:57 -13.2 °C -15.6 °C 34097 hPa Calm   7.7 km/h 75 % 0 mm
17:02 -13.2 °C -15.4 °C 34107.2 hPa Calm   7.7 km/h 76 % 0 mm
17:07 -13.1 °C -15.3 °C 34107.2 hPa SW 2.6 km/h 10.3 km/h 76 % 0 mm
17:12 -13 °C -15.1 °C 34107.2 hPa Calm   10.3 km/h 77 % 0 mm
17:17 -12.9 °C -15.2 °C 34107.2 hPa ENE 2.6 km/h 7.7 km/h 76 % 0 mm
17:22 -13 °C -15.4 °C 34107.2 hPa SW 5.1 km/h 7.7 km/h 74 % 0 mm
17:27 -13.1 °C -15.6 °C 34130.9 hPa NE 7.7 km/h 7.7 km/h 74 % 0 mm
17:32 -13.7 °C -15.6 °C 34120.7 hPa ENE 20.8 km/h 20.8 km/h 79 % 0 mm
17:37 -14 °C -15.8 °C 34130.9 hPa ENE 10.3 km/h 33.6 km/h 80 % 0 mm
17:42 -14.1 °C -15.7 °C 34130.9 hPa SE 2.6 km/h 33.6 km/h 82 % 0 mm
17:47 -14.1 °C -15.6 °C 34130.9 hPa ENE 15.6 km/h 31.1 km/h 83 % 0 mm
17:57 -14.2 °C -15.7 °C 34130.9 hPa NE 10.3 km/h 28.5 km/h 83 % 0 mm
18:02 -14.2 °C -15.6 °C 34144.4 hPa ENE 10.3 km/h 28.5 km/h 84 % 0 mm
18:07 -14.2 °C -15.7 °C 34144.4 hPa ENE 15.6 km/h 31.1 km/h 83 % 0 mm
18:12 -14.2 °C -15.8 °C 34144.4 hPa NE 12.9 km/h 31.1 km/h 82 % 0 mm
18:17 -14.2 °C -15.7 °C 34144.4 hPa East 5.1 km/h 31.1 km/h 83 % 0 mm
18:22 -14.3 °C -15.8 °C 34144.4 hPa NE 15.6 km/h 25.9 km/h 83 % 0 mm
18:27 -14.4 °C -15.9 °C 34154.6 hPa NNE 2.6 km/h 25.9 km/h 83 % 0 mm
18:32 -14.5 °C -16.1 °C 34154.6 hPa NE 5.1 km/h 25.9 km/h 82 % 0 mm
18:42 -14.6 °C -16.1 °C 34154.6 hPa NE 2.6 km/h 25.9 km/h 83 % 0 mm
18:47 -14.6 °C -15.9 °C 34154.6 hPa ENE 2.6 km/h 18.2 km/h 85 % 0 mm
18:52 -14.6 °C -15.9 °C 34154.6 hPa NE 5.1 km/h 18.2 km/h 85 % 0 mm
18:57 -14.6 °C -15.9 °C 34154.6 hPa ENE 5.1 km/h 10.3 km/h 84 % 0 mm
19:02 -14.6 °C -15.8 °C 34154.6 hPa NNE 10.3 km/h 10.3 km/h 85 % 0 mm
19:07 -14.6 °C -16.1 °C 34164.7 hPa NNE 2.6 km/h 10.3 km/h 82 % 0 mm
19:12 -14.6 °C -16.1 °C 34154.6 hPa NE 12.9 km/h 12.9 km/h 82 % 0 mm
19:22 -14.6 °C -16.4 °C 34164.7 hPa NE 5.1 km/h 20.8 km/h 80 % 0 mm
19:32 -14.7 °C -16.3 °C 34164.7 hPa NE 5.1 km/h 20.8 km/h 81 % 0 mm
19:37 -14.7 °C -16.4 °C 34164.7 hPa Calm   28.5 km/h 81 % 0 mm
19:42 -14.8 °C -16.3 °C 34164.7 hPa NE 2.6 km/h 28.5 km/h 82 % 0 mm
19:47 -14.8 °C -16.3 °C 34178.3 hPa Calm   15.6 km/h 83 % 0 mm
19:52 -14.8 °C -16.2 °C 34178.3 hPa ENE 2.6 km/h 15.6 km/h 84 % 0 mm
20:02 -14.8 °C -16.2 °C 34178.3 hPa NE 5.1 km/h 12.9 km/h 84 % 0 mm
20:12 -15 °C -16.3 °C 34178.3 hPa ENE 2.6 km/h 18.2 km/h 85 % 0 mm
20:17 -15.1 °C -16.3 °C 34178.3 hPa NNE 5.1 km/h 18.2 km/h 85 % 0 mm
20:22 -15.1 °C -16.3 °C 34178.3 hPa Calm   18.2 km/h 86 % 0 mm
20:27 -15.1 °C -16.3 °C 34178.3 hPa Calm   12.9 km/h 86 % 0 mm
20:32 -15.2 °C -16.3 °C 34188.4 hPa Calm   12.9 km/h 86 % 0 mm
20:37 -15.2 °C -16.3 °C 34188.4 hPa Calm   5.1 km/h 86 % 0 mm
20:42 -15.2 °C -16.3 °C 34188.4 hPa Calm   5.1 km/h 87 % 0 mm
20:47 -15.2 °C -16.3 °C 34188.4 hPa Calm   2.6 km/h 87 % 0 mm
20:52 -15.3 °C -16.4 °C 34188.4 hPa Calm   2.6 km/h 87 % 0 mm
21:02 -15.3 °C -16.3 °C 34188.4 hPa Calm   2.6 km/h 88 % 0 mm
21:07 -15.3 °C -16.2 °C 34198.6 hPa Calm     89 % 0 mm
21:12 -15.3 °C -16.3 °C 34198.6 hPa Calm     88 % 0 mm
21:17 -15.3 °C -16.3 °C 34198.6 hPa Calm   2.6 km/h 88 % 0 mm
21:22 -15.4 °C -16.4 °C 34198.6 hPa Calm   2.6 km/h 88 % 0 mm
21:32 -15.5 °C -16.6 °C 34198.6 hPa Calm     87 % 0 mm
21:37 -15.7 °C -16.8 °C 34198.6 hPa Calm     87 % 0 mm
21:42 -15.9 °C -17 °C 34198.6 hPa Calm     87 % 0 mm
21:47 -16.1 °C -17.1 °C 34212.1 hPa Calm     88 % 0 mm
21:52 -16.2 °C -17.1 °C 34212.1 hPa Calm     89 % 0 mm
21:57 -16.3 °C -17.2 °C 34212.1 hPa Calm     90 % 0 mm
22:02 -16.4 °C -17.2 °C 34212.1 hPa Calm     91 % 0 mm
22:07 -16.5 °C -17.2 °C 34222.3 hPa Calm     91 % 0 mm
22:12 -16.5 °C -17.2 °C 34222.3 hPa Calm     92 % 0 mm
22:17 -16.6 °C -17.2 °C 34222.3 hPa Calm   2.6 km/h 92 % 0 mm
22:22 -16.6 °C -17.2 °C 34222.3 hPa Calm   2.6 km/h 92 % 0 mm
22:27 -16.6 °C -17.3 °C 34222.3 hPa Calm     92 % 0 mm
22:32 -16.7 °C -17.4 °C 34222.3 hPa Calm     92 % 0 mm
22:37 -16.8 °C -17.4 °C 34222.3 hPa Calm     92 % 0 mm
22:42 -16.8 °C -17.4 °C 34222.3 hPa Calm     92 % 0 mm
22:47 -16.8 °C -17.5 °C 34222.3 hPa Calm     92 % 0 mm
22:52 -16.8 °C -17.4 °C 34222.3 hPa Calm     93 % 0 mm
22:57 -16.9 °C -17.4 °C 34222.3 hPa Calm     93 % 0 mm
23:02 -17 °C -17.6 °C 34235.8 hPa Calm     93 % 0 mm
23:07 -17 °C -17.6 °C 34235.8 hPa Calm     93 % 0 mm
23:12 -17 °C -17.6 °C 34235.8 hPa Calm     93 % 0 mm
23:17 -17 °C -17.6 °C 34235.8 hPa Calm     93 % 0 mm
23:22 -17 °C -17.6 °C 34235.8 hPa Calm     93 % 0 mm
23:27 -17 °C -17.6 °C 34235.8 hPa Calm     93 % 0 mm
23:32 -17 °C -17.6 °C 34235.8 hPa Calm     93 % 0 mm
23:37 -17 °C -17.6 °C 34235.8 hPa Calm     93 % 0 mm
23:42 -17 °C -17.6 °C 34235.8 hPa Calm     93 % 0 mm
23:47 -17 °C -17.6 °C 34235.8 hPa Calm   2.6 km/h 93 % 0 mm
23:52 -16.9 °C -17.6 °C 34235.8 hPa Calm   2.6 km/h 92 % 0 mm
23:57 -16.8 °C -17.5 °C 34235.8 hPa Calm   5.1 km/h 92 % 0 mm
Meteo18
Compliments of Weather Underground - 4 mb

Script developed by  Jim McMurry - jmcmurry@mwt.net Adapted for the template by  Wim van der Kuil - Leuven-Template.eu

You find our weather info also at:

European Weather Network

Weather Underground

Equipment we use:

Weather-station
Davis Vue

Weather-program
Meteobridge

Weather-server
Raspberry PI 2 B+

Provider
1 and 1

Davis Vue

Meteobridge

Raspberry PI 2 B+

1 and 1